Regional Weather Roundup
Issued by NWS

Home | Current Version | Previous Version | Text Only | Print | Product List | Glossary Off
Versions: 1 2 3 4 5 6 7 8 9 10 11 12 13 14 15 16 17 18 19 20 21 22 23 24 25 26 27 28 29 30 31 32 33 34 35 36 37 38 39 40 41 42 43 44 45 46 47 48 49 50

000
ASUS43 KLMK 041002
RWRKY
KENTUCKY REGIONAL WEATHER ROUNDUP
NATIONAL WEATHER SERVICE LOUISVILLE KY
600 AM EDT FRI SEP 04 2015

NOTE "FAIR" INDICATES FEW OR NO CLOUDS BELOW 12,000 FEET
WITH NO SIGNIFICANT WEATHER AND/OR OBSTRUCTIONS TO VISIBILITY.

KYZ001>023-026-027-061>063-070>075-041100-
WESTERN AND SOUTH CENTRAL KENTUCKY

CITY           SKY/WX    TMP DP  RH WIND       PRES   REMARKS
PADUCAH        PTCLDY    68  66  93 CALM      29.98R FOG
HENDERSON      CLEAR     66  63  88 CALM      29.98S
OWENSBORO      CLEAR     69  68  97 CALM      30.00R FOG
HOPKINSVILLE   CLEAR     70  67  92 NE1       29.99R
BOWLING GREEN  CLEAR     68  65  90 CALM      30.01R FOG
GLASGOW        CLEAR     65  65 100 CALM      30.01S FOG
$$

KYZ024-025-028>034-038-045-046-053-041100-
NORTH CENTRAL KENTUCKY

CITY           SKY/WX    TMP DP  RH WIND       PRES   REMARKS
LOUISVILLE/SDF CLEAR     74  68  81 CALM      30.00R HAZE
LOUISVILLE/LOU CLEAR     71  68  90 CALM      30.01R FOG
FORT KNOX      FOG       66  64  94 CALM      30.00S VSB 3/4
$$

KYZ035>037-039>044-047>052-055>060-089>105-041100-
NORTHEAST KENTUCKY

CITY           SKY/WX    TMP DP  RH WIND       PRES   REMARKS
LEXINGTON      CLEAR     68  64  87 CALM      30.03R FOG
COVINGTON      PTCLDY    67  65  93 S3        30.02R FOG
FRANKFORT      CLEAR     67  64  90 CALM      30.01S FOG
$$

KYZ054-064>069-076>088-106>120-041100-
SOUTHEAST KENTUCKY

CITY           SKY/WX    TMP DP  RH WIND       PRES   REMARKS
JACKSON        CLEAR     69  66  90 CALM      30.05R FOG
LONDON         PTCLDY    66  62  87 CALM      30.05R FOG
SOMERSET       NOT AVBL
MIDDLESBORO    FOG       65  65 100 CALM      30.07R VSB 1/2
MONTICELLO     SUNNY     63  63 100 CALM      30.06S FOG
$$



USA.gov is the U.S. government's official web portal to all federal, state and local government web resources and services.